Location: Central Falls
(41.8900°N, 71.3929°W)
Time: 02:53:26
(UTC+00:00)

Vanguard 2 Rocket - Pass Details

Date: 06 December 2023
Orbit: 555 x 3309 km, 32.9° (Epoch: 01 March)

Event Time Altitude Azimuth Distance (km) Brightness Sun altitude
Rises 20:45:58 0° 257° (WSW) 6,560 12.8 3.6°
Reaches altitude 10° 20:49:58 10° 255° (WSW) 5,789 12.6 3.0°
Maximum altitude 21:08:53 65° 179° (S) 3,523 10.1 0.1°
Drops below altitude 10° 21:27:05 10° 104° (ESE) 5,594 10.5 -2.9°
Sets 21:30:52 0° 101° (E) 6,339 10.7 -3.5°
